Wynola (221) Station Data

Red Flag Warning: No
Fire Weather Zone: 258
SDGE Region: Ramona
Lat/Lon: 33.105/-116.603

Observations

Time Wind Speed/Gust Temp(F) RH Fuel Moist Fuel Temp(F) Dewpt(F) Tmax(F) Tmin(F) Accum Precip 10-min Precip SL Press(mb)
4/26 2:40am 352 2 G 4 50° 57% - - 36° 51.5° 45.9° - - -
4/26 2:30am 356 3 G 4 48° 64% - - 37° 50.8° 45.9° - - -
4/26 2:20am 285 2 G 5 49° 61% - - 37° 50.8° 45.9° - - -
4/26 2:10am 337 1 G 2 48° 64% - - 37° 49.5° 45.9° - - -
4/26 2:00am 218 0 G 1 48° 66% - - 37° 49.5° 45.9° - - -
4/26 1:50am 128 0 G 1 47° 69% - - 37° 49.5° 45.9° - - -
4/26 1:40am 288 1 G 2 47° 69% - - 38° 49.5° 45.9° - - -
4/26 1:30am 281 2 G 3 49° 66% - - 38° 49.5° 45.9° - - -
4/26 1:20am 318 1 G 2 47° 70% - - 38° 49.5° 45.9° - - -
4/26 1:10am 296 2 G 3 47° 72% - - 38° 49.5° 45.9° - - -
4/26 1:00am 314 2 G 3 47° 72% - - 39° 49.5° 46.3° - - -
4/26 12:50am 306 2 G 4 47° 74% - - 39° 49.5° 46.3° - - -
4/26 12:40am 288 3 G 5 48° 71% - - 39° 49.5° 46.4° - - -
4/26 12:30am 296 2 G 3 49° 69% - - 39° 49.5° 46.4° - - -
4/26 12:20am 297 2 G 4 48° 74% - - 40° 49.5° 46.4° - - -
4/26 12:10am 334 3 G 5 48° 74% - - 40° 49.5° 46.4° - - -
4/26 12:00am 281 4 G 5 50° 69% - - 40° 55.5° 43.8° - - -
4/25 11:50pm 293 2 G 3 49° 72% - - 40° 55.5° 43.8° - - -
4/25 11:40pm 309 3 G 5 49° 72% - - 41° 55.5° 43.8° - - -
4/25 11:30pm 299 4 G 6 48° 77% - - 41° 55.5° 43.8° - - -
4/25 11:20pm 335 4 G 6 49° 76% - - 42° 55.5° 43.8° - - -
4/25 11:10pm 323 2 G 4 47° 85% - - 43° 55.5° 43.8° - - -
4/25 11:00pm 316 3 G 5 47° 88% - - 44° 55.5° 43.8° - - -
4/25 10:50pm 304 4 G 6 47° 93% - - 45° 55.5° 43.8° - - -
4/25 10:40pm 325 4 G 6 47° 97% - - 47° 55.5° 43.8° - - -
4/25 10:30pm 333 4 G 6 47° 100% - - 47° 55.5° 43.8° - - -
4/25 10:20pm 301 4 G 6 48° 100% - - 48° 55.5° 43.8° - - -
4/25 10:10pm 316 3 G 4 48° 96% - - 47° 55.5° 43.8° - - -
4/25 10:00pm 325 3 G 4 48° 94% - - 46° 55.5° 43.8° - - -
4/25 9:50pm 331 4 G 5 48° 93% - - 46° 55.5° 43.8° - - -
4/25 9:40pm 308 3 G 4 48° 97% - - 47° 55.5° 43.8° - - -
4/25 9:30pm 286 3 G 5 48° 100% - - 48° 55.5° 43.8° - - -
4/25 9:20pm 273 3 G 4 48° 100% - - 48° 55.5° 43.8° - - -
4/25 9:10pm 298 3 G 5 48° 100% - - 48° 55.5° 43.8° - - -
4/25 9:00pm 314 3 G 4 48° 100% - - 48° 55.5° 43.8° - - -
4/25 8:50pm 345 3 G 4 48° 100% - - 48° 55.5° 43.8° - - -
4/25 8:40pm 321 4 G 6 48° 100% - - 48° 55.5° 43.8° - - -
4/25 8:30pm 321 2 G 5 48° 100% - - 48° 55.5° 43.8° - - -
4/25 8:20pm 321 4 G 8 49° 100% - - 49° 55.5° 43.8° - - -
4/25 8:10pm 306 4 G 7 49° 100% - - 49° 55.5° 43.8° - - -
4/25 8:00pm 304 3 G 6 49° 100% - - 49° 55.5° 43.8° - - -
4/25 7:50pm 281 4 G 8 49° 100% - - 49° 55.5° 43.8° - - -
4/25 7:40pm 284 4 G 8 49° 100% - - 49° 55.5° 43.8° - - -
4/25 7:30pm 289 3 G 8 49° 100% - - 49° 55.5° 43.8° - - -
4/25 7:20pm 285 4 G 8 49° 99% - - 49° 55.5° 43.8° - - -
4/25 7:10pm 287 4 G 11 50° 97% - - 49° 55.5° 43.8° - - -
4/25 7:00pm 277 5 G 10 50° 95% - - 49° 55.5° 43.8° - - -
4/25 6:50pm 283 5 G 10 50° 94% - - 49° 55.5° 43.8° - - -
4/25 6:40pm 278 6 G 13 51° 91% - - 48° 55.5° 43.8° - - -
4/25 6:30pm 289 5 G 11 51° 88% - - 48° 55.5° 43.8° - - -
4/25 6:20pm 278 5 G 10 51° 87% - - 47° 55.5° 43.8° - - -
4/25 6:10pm 292 5 G 11 51° 86% - - 47° 55.5° 43.8° - - -
4/25 6:00pm 289 5 G 14 51° 84% - - 47° 55.5° 43.8° - - -
4/25 5:50pm 293 6 G 14 52° 83% - - 47° 55.5° 43.8° - - -
4/25 5:40pm 285 6 G 11 52° 82% - - 46° 55.5° 43.8° - - -
4/25 5:30pm 295 6 G 12 52° 80% - - 46° 55.5° 43.8° - - -
4/25 5:20pm 293 6 G 13 52° 79% - - 46° 55.5° 43.8° - - -
4/25 5:10pm 283 5 G 12 52° 79% - - 46° 55.5° 43.8° - - -
4/25 5:00pm 283 6 G 12 52° 79% - - 46° 55.5° 43.8° - - -
4/25 4:50pm 290 6 G 13 52° 79% - - 46° 55.5° 43.8° - - -
4/25 4:40pm 293 5 G 11 52° 79% - - 46° 55.5° 43.8° - - -
4/25 4:30pm 294 6 G 12 52° 79% - - 46° 55.5° 43.8° - - -
4/25 4:20pm 295 6 G 14 53° 77% - - 46° 55.5° 43.8° - - -
4/25 4:10pm 275 6 G 14 53° 76% - - 46° 55.5° 43.8° - - -
4/25 4:00pm 286 5 G 10 53° 79% - - 47° 55.5° 43.8° - - -
4/25 3:50pm 288 6 G 14 52° 80% - - 47° 55.5° 43.8° - - -
4/25 3:40pm 288 7 G 14 52° 80% - - 46° 55.5° 43.8° - - -
4/25 3:30pm 287 6 G 13 53° 78% - - 46° 55.5° 43.8° - - -
4/25 3:20pm 295 6 G 12 53° 76% - - 46° 55.5° 43.8° - - -
4/25 3:10pm 294 5 G 14 53° 76% - - 46° 55.5° 43.8° - - -
4/25 3:00pm 263 7 G 16 53° 76% - - 46° 55.5° 43.8° - - -
4/25 2:50pm 270 6 G 12 53° 75% - - 46° 55.5° 43.8° - - -
4/25 2:40pm 269 5 G 13 53° 74% - - 45° 55.5° 43.8° - - -
4/25 2:30pm 290 6 G 16 54° 69% - - 44° 55.5° 43.8° - - -
4/25 2:20pm 279 6 G 16 55° 68% - - 44° 55.5° 43.8° - - -
4/25 2:10pm 289 8 G 15 55° 67% - - 44° 55.5° 43.8° - - -
4/25 2:00pm 282 8 G 18 54° 67% - - 44° 55.5° 43.8° - - -
4/25 1:50pm 288 7 G 14 55° 67% - - 44° 55.5° 43.8° - - -
4/25 1:40pm 288 8 G 17 55° 66% - - 44° 55.5° 43.8° - - -
4/25 1:30pm 277 8 G 18 54° 67% - - 44° 55° 43.8° - - -
4/25 1:20pm 301 8 G 18 54° 69% - - 44° 55° 43.8° - - -
4/25 1:10pm 286 9 G 17 54° 68% - - 43° 55° 43.8° - - -
4/25 1:00pm 291 8 G 17 54° 68% - - 44° 55° 43.8° - - -
4/25 12:50pm 288 9 G 16 53° 69% - - 44° 54.1° 43.8° - - -
4/25 12:40pm 294 8 G 16 53° 70% - - 44° 54° 43.8° - - -
4/25 12:30pm 290 7 G 14 52° 71% - - 43° 53° 43.8° - - -
4/25 12:20pm 292 7 G 17 52° 73% - - 44° 53° 43.8° - - -
4/25 12:10pm 294 7 G 15 52° 75% - - 44° 52.6° 43.8° - - -
4/25 12:00pm 306 8 G 16 52° 72% - - 43° 52.6° 43.8° - - -
4/25 11:50am 293 8 G 17 51° 73% - - 43° 51.9° 43.8° - - -
4/25 11:40am 296 7 G 14 50° 77% - - 43° 51.8° 43.8° - - -
4/25 11:30am 284 8 G 16 50° 80% - - 44° 50.5° 43.8° - - -
4/25 11:20am 286 7 G 14 49° 83% - - 44° 50.5° 43.8° - - -
4/25 11:10am 303 8 G 15 50° 81% - - 44° 50.5° 43.8° - - -
4/25 11:00am 293 6 G 15 50° 82% - - 44° 50.5° 43.8° - - -
4/25 10:50am 301 5 G 12 49° 84% - - 45° 50.4° 43.8° - - -
4/25 10:40am 302 9 G 17 49° 85% - - 45° 49.8° 43.8° - - -
4/25 10:30am 285 7 G 15 48° 96% - - 47° 48.8° 43.8° - - -
4/25 10:20am 283 7 G 18 47° 100% - - 47° 48° 43.8° - - -
4/25 10:10am 287 7 G 15 47° 100% - - 47° 47.5° 43.8° - - -
4/25 10:00am 288 7 G 17 47° 100% - - 47° 47.2° 43.8° - - -
4/25 9:50am 275 7 G 15 46° 100% - - 46° 46.5° 43.8° - - -
4/25 9:40am 278 5 G 13 46° 100% - - 46° 46° 43.8° - - -
4/25 9:30am 299 9 G 17 45° 100% - - 45° 45.7° 43.8° - - -
4/25 9:20am 284 6 G 15 45° 100% - - 45° 45.7° 43.8° - - -
4/25 9:10am 289 7 G 19 45° 100% - - 45° 45.5° 43.8° - - -
4/25 9:00am 285 8 G 16 45° 100% - - 45° 45.2° 43.8° - - -
4/25 8:50am 283 7 G 20 45° 100% - - 45° 45.2° 43.8° - - -
4/25 8:40am 297 8 G 17 45° 100% - - 45° 45.2° 43.8° - - -
4/25 8:30am 288 8 G 17 45° 100% - - 45° 45° 43.8° - - -
4/25 8:20am 287 9 G 18 45° 100% - - 45° 45° 43.8° - - -
4/25 8:10am 294 8 G 20 45° 100% - - 45° 45° 43.8° - - -
4/25 8:00am 292 8 G 20 45° 100% - - 45° 45° 43.8° - - -
4/25 7:50am 283 8 G 19 44° 100% - - 45° 45° 43.8° - - -
4/25 7:40am 295 9 G 19 44° 100% - - 44° 45° 43.8° - - -
4/25 7:30am 289 7 G 19 44° 100% - - 44° 45° 43.8° - - -
4/25 7:20am 274 6 G 14 44° 100% - - 44° 45° 43.8° - - -
4/25 7:10am 275 7 G 16 44° 100% - - 44° 45° 43.8° - - -
4/25 7:00am 281 7 G 15 44° 100% - - 44° 45° 43.8° - - -
4/25 6:50am 282 8 G 19 44° 100% - - 44° 45° 43.8° - - -
4/25 6:40am 285 8 G 17 44° 100% - - 44° 45° 43.8° - - -
4/25 6:30am 285 8 G 16 44° 100% - - 44° 45° 43.8° - - -
4/25 6:20am 288 8 G 18 44° 100% - - 44° 45° 43.8° - - -
4/25 6:10am 304 9 G 21 44° 100% - - 44° 45° 43.8° - - -
4/25 6:00am 302 8 G 16 44° 100% - - 44° 45° 43.8° - - -
4/25 5:50am 293 8 G 20 44° 100% - - 44° 45° 43.8° - - -
4/25 5:40am 297 8 G 16 44° 100% - - 44° 45° 43.8° - - -
4/25 5:30am 296 7 G 16 44° 100% - - 44° 45° 43.8° - - -
4/25 5:20am 296 7 G 17 44° 100% - - 44° 45° 43.8° - - -
4/25 5:10am 288 7 G 16 44° 100% - - 44° 45° 43.8° - - -
4/25 5:00am 309 7 G 16 44° 100% - - 44° 45° 43.8° - - -
4/25 4:50am 293 8 G 18 44° 100% - - 44° 45° 43.8° - - -
4/25 4:40am 296 7 G 16 45° 100% - - 45° 45° 43.8° - - -
4/25 4:30am 303 7 G 16 45° 100% - - 45° 45° 43.8° - - -
4/25 4:20am 309 8 G 17 45° 100% - - 45° 45° 43.8° - - -
4/25 4:10am 302 7 G 17 45° 100% - - 45° 45° 43.8° - - -
4/25 4:00am 292 8 G 17 45° 100% - - 45° 44.9° 43.8° - - -
4/25 3:50am 290 7 G 17 45° 100% - - 45° 44.9° 43.8° - - -
4/25 3:40am 292 6 G 16 45° 100% - - 45° 44.9° 43.8° - - -
4/25 3:30am 287 7 G 17 45° 100% - - 45° 44.9° 43.8° - - -
4/25 3:20am 282 6 G 14 45° 100% - - 45° 44.9° 43.8° - - -
4/25 3:10am 291 8 G 19 45° 100% - - 45° 44.9° 43.8° - - -
4/25 3:00am 301 8 G 21 45° 100% - - 45° 44.9° 43.8° - - -
4/25 2:50am 293 8 G 19 44° 100% - - 44° 44.9° 43.8° - - -
4/25 2:40am 278 7 G 18 44° 100% - - 44° 44.9° 43.8° - - -
4/25 2:30am 277 7 G 19 44° 100% - - 44° 44.9° 43.8° - - -
4/25 2:20am 278 9 G 19 44° 100% - - 44° 44.9° 43.8° - - -
4/25 2:10am 279 8 G 21 44° 100% - - 44° 44.9° 43.8° - - -
4/25 2:00am 288 8 G 23 44° 100% - - 44° 44.9° 43.8° - - -
4/25 1:50am 283 8 G 17 45° 100% - - 45° 44.9° 43.8° - - -
4/25 1:40am 289 9 G 21 45° 100% - - 45° 44.9° 43.8° - - -
4/25 1:30am 284 8 G 19 45° 100% - - 45° 44.8° 43.8° - - -
4/25 1:20am 292 7 G 14 45° 100% - - 45° 44.8° 43.8° - - -
4/25 1:10am 298 8 G 18 44° 100% - - 44° 44.7° 43.8° - - -
4/25 1:00am 283 8 G 19 44° 100% - - 44° 44.7° 43.8° - - -
4/25 12:50am 284 8 G 19 44° 100% - - 44° 44.7° 43.8° - - -
4/25 12:40am 278 8 G 17 44° 100% - - 44° 44.7° 43.8° - - -
4/25 12:30am 284 6 G 15 44° 100% - - 44° 44.7° 43.9° - - -
4/25 12:20am 291 7 G 16 44° 100% - - 44° 44.7° 43.9° - - -
4/25 12:10am 292 7 G 17 44° 100% - - 44° 44.7° 44.1° - - -
4/25 12:00am 281 7 G 14 45° 100% - - 45° 59.2° 40.7° - - -
4/24 11:50pm 281 7 G 17 45° 100% - - 45° 59.2° 40.7° - - -
4/24 11:40pm 289 8 G 19 45° 100% - - 45° 59.2° 40.7° - - -
4/24 11:30pm 292 9 G 20 45° 100% - - 45° 59.2° 40.7° - - -
4/24 11:20pm 292 9 G 21 45° 100% - - 45° 59.2° 40.7° - - -
4/24 11:10pm 290 9 G 20 45° 100% - - 45° 59.2° 40.7° - - -
4/24 11:00pm 288 8 G 17 45° 100% - - 45° 59.2° 40.7° - - -
4/24 10:50pm 285 9 G 20 45° 100% - - 45° 59.2° 40.7° - - -
4/24 10:40pm 285 8 G 16 45° 100% - - 45° 59.2° 40.7° - - -
4/24 10:30pm 279 7 G 15 46° 100% - - 46° 59.2° 40.7° - - -
4/24 10:20pm 289 7 G 15 46° 100% - - 46° 59.2° 40.7° - - -
4/24 10:10pm 297 6 G 14 46° 100% - - 46° 59.2° 40.7° - - -
4/24 10:00pm 304 6 G 16 46° 100% - - 46° 59.2° 40.7° - - -
4/24 9:50pm 292 7 G 14 46° 100% - - 46° 59.2° 40.7° - - -
4/24 9:40pm 292 7 G 19 46° 100% - - 46° 59.2° 40.7° - - -
4/24 9:30pm 304 6 G 11 46° 100% - - 46° 59.2° 40.7° - - -
4/24 9:20pm 302 6 G 14 46° 100% - - 46° 59.2° 40.7° - - -
4/24 9:10pm 307 7 G 19 47° 99% - - 46° 59.2° 40.7° - - -
4/24 9:00pm 305 7 G 16 47° 98% - - 46° 59.2° 40.7° - - -
4/24 8:50pm 286 8 G 18 47° 98% - - 46° 59.2° 40.7° - - -
4/24 8:40pm 295 7 G 16 47° 99% - - 47° 59.2° 40.7° - - -
4/24 8:30pm 289 9 G 20 47° 100% - - 47° 59.2° 40.7° - - -
4/24 8:20pm 276 8 G 17 47° 100% - - 47° 59.2° 40.7° - - -
4/24 8:10pm 285 7 G 16 48° 100% - - 48° 59.2° 40.7° - - -
4/24 8:00pm 285 7 G 15 48° 99% - - 47° 59.2° 40.7° - - -
4/24 7:50pm 293 6 G 17 48° 99% - - 48° 59.2° 40.7° - - -
4/24 7:40pm 288 8 G 17 48° 98% - - 48° 59.2° 40.7° - - -
4/24 7:30pm 297 7 G 15 48° 97% - - 48° 59.2° 40.7° - - -
4/24 7:20pm 288 8 G 18 49° 97% - - 48° 59.2° 40.7° - - -
4/24 7:10pm 280 9 G 19 49° 97% - - 48° 59.2° 40.7° - - -
4/24 7:00pm 279 8 G 19 49° 96% - - 48° 59.2° 40.7° - - -
4/24 6:50pm 280 8 G 17 49° 95% - - 48° 59.2° 40.7° - - -
4/24 6:40pm 278 9 G 18 50° 94% - - 48° 59.2° 40.7° - - -
4/24 6:30pm 283 9 G 17 50° 92% - - 48° 59.2° 40.7° - - -
4/24 6:20pm 274 7 G 16 50° 87% - - 47° 59.2° 40.7° - - -
4/24 6:10pm 280 8 G 16 51° 84% - - 46° 59.2° 40.7° - - -
4/24 6:00pm 273 6 G 17 52° 81% - - 46° 59.2° 40.7° - - -